Regional Weather Roundup
Issued by NWS

Home | Current Version | Previous Version | Text Only | Print | Product List | Glossary Off
Versions: 1 2 3 4 5 6 7 8 9 10 11 12 13 14 15 16 17 18 19 20 21 22 23 24 25 26 27 28 29 30 31 32 33 34 35 36 37 38 39 40 41 42 43 44 45 46 47 48 49 50

000
ASUS43 KFSD 222110
RWRSD

WEATHER ROUNDUP FOR SOUTH DAKOTA
NATIONAL WEATHER SERVICE SIOUX FALLS SD
400 PM CDT TUE APR 22 2014

NOTE: "FAIR" INDICATES FEW OR NO CLOUDS BELOW 12,000 FEET WITH NO
SIGNIFICANT WEATHER AND/OR OBSTRUCTIONS TO VISIBILITY.


SDZ001>005-009-010-012>017-222200-
NORTHWEST AND NORTH CENTRAL SOUTH DAKOTA

CITY           SKY/WX    TMP DP  RH WIND       PRES   REMARKS
BUFFALO          N/A     70  34  26 SE24G30   29.64F
MOBRIDGE       PTSUNNY   69  29  22 SE26G38   29.83F
$$

SDZ012>016-024>037-041>051-057-063-072>074-222200-
SOUTHWEST AND SOUTH CENTRAL SOUTH DAKOTA

CITY           SKY/WX    TMP DP  RH WIND       PRES   REMARKS
RAPID CTY ARPT CLOUDY    73  42  32 SE17G23   29.66F
PIERRE         PTSUNNY   73  34  23 SE33G41   29.77F
CUSTER         CLOUDY    68  33  27 W17G24    29.79F
ELLSWORTH AFB  CLOUDY    74  44  33 SE13      29.65F
PHILIP         PTSUNNY   80  42  25 S20       29.66F
PINE RIDGE     CLOUDY    78  42  27 S18       29.70F
SPEARFISH      FAIR      68  39  34 E8        29.72S
WINNER         FAIR      74  32  21 SE24G37   29.81
$$

SDZ004>011-016>023-039-040-222200-
NORTHEAST SOUTH DAKOTA

CITY           SKY/WX    TMP DP  RH WIND       PRES   REMARKS
ABERDEEN       PTSUNNY   64  29  26 S16       29.95F
WATERTOWN      MOSUNNY   62  31  31 S14G20    29.99F
SISSETON         N/A     62  31  31 S14       29.99F
$$

SDZ017-020-022-023-036>040-048>070-222200-
SOUTHEAST SOUTH DAKOTA

CITY           SKY/WX    TMP DP  RH WIND       PRES   REMARKS
SIOUX FALLS    PTSUNNY   64  32  30 S13G21    29.99F
HURON          CLOUDY    64  28  25 SE17G29   29.94F
CHAMBERLAIN      N/A     71  31  22 S23G36    29.87F
MITCHELL       CLOUDY    67  29  24 SE21G30   29.94F
YANKTON        PTSUNNY   66  30  26 SE20      29.98F
$$

ABBREVIATIONS USED IN REMARKS
   TC - TEMPERATURE IN CELSIUS
  WCI - WIND CHILL INDEX
   HX - HEAT INDEX
  VSB - VISIBILITY




USA.gov is the U.S. government's official web portal to all federal, state and local government web resources and services.